Kulusuk, Greenland

5:49 PM -03 on March 25, 2017 (GMT -0300)
Kulusuk

Weather History for BGKK - November, 2014

Change the Weather History Date:

Friday, November 7, 2014

  Actual Average Record
Temperature  
Mean Temperature 24 °F -  
Max Temperature 27 °F 26 °F 37 °F (2002)
Min Temperature 21 °F 23 °F 14 °F (2001)
Degree Days  
Heating Degree Days 41    
Moisture  
Dew Point 12 °F    
Average Humidity 55    
Maximum Humidity 74    
Minimum Humidity 32    
Precipitation  
Precipitation 0.00 in - - ()
Sea Level Pressure  
Sea Level Pressure 29.62 in    
Wind  
Wind Speed 3 mph ()    
Max Wind Speed 9 mph    
Max Gust Speed -    
Visibility 6.2 miles    
Events      
Averages and records for this station are not official NWS values.
T = Trace of Precipitation, MM = Missing Value Source: Averaged Metar Reports

Daily Weather History Graph

Daily Weather History Graph

Search for Another Location

Airport or City:

Trip Planner

Search our weather history database for the weather conditions in past years. The results will help you decide how hot, cold, wet, or windy it might be!

Date:

Astronomy

Nov. 07, 2014 Rise Set
Actual Time 7:42 AM -03 2:41 PM -03
Civil Twilight 6:41 AM -03 3:41 PM -03
Nautical Twilight 5:39 AM -03 4:43 PM -03
Astronomical Twilight 4:41 AM -03 5:42 PM -03
Moon 3:20 PM -03 (11/7) 8:10 AM -03 (11/7)
Length of Visible Light 8h 59m
Length of Day
6h 59m
Full, 99% of the Moon is Illuminated
Nov 7
Full
Nov 14
Last Quarter
Nov 22
New
Nov 29
First Quarter
Dec 6
Full

Hourly Weather History & Observations

Time (-03) Temp. Windchill Dew Point Humidity Pressure Visibility Wind Dir Wind Speed Gust Speed Precip Events Conditions
12:00 AM 26 °F - 11 °F 40% 29.55 in 22 mi SSE 2.3 mph - -  
12:50 AM 21.2 °F 16.4 °F 10.4 °F 63% 29.53 in 6.2 mi WSW 3.5 mph - N/A   Unknown
1:50 AM 26.6 °F - 12.2 °F 55% 29.56 in 6.2 mi Variable 2.3 mph - N/A   Unknown
2:50 AM 24.8 °F 20.5 °F 10.4 °F 54% 29.56 in 6.2 mi SW 3.5 mph - N/A   Unknown
3:00 AM 25 °F - 12 °F 44% 29.58 in 22 mi SW 2.3 mph - -  
3:50 AM 24.8 °F - 12.2 °F 59% 29.56 in 6.2 mi Variable 1.2 mph - N/A   Unknown
4:50 AM 26.6 °F - 10.4 °F 51% 29.56 in 6.2 mi Variable 1.2 mph - N/A   Unknown
5:50 AM 21.2 °F - 8.6 °F 58% 29.56 in 6.2 mi WSW 1.2 mph - N/A   Unknown
6:00 AM 24 °F - 7 °F 34% 29.60 in 22 mi WSW 1.2 mph - -  
6:50 AM 26.6 °F - 10.4 °F 51% 29.59 in 6.2 mi Variable 1.2 mph - N/A   Unknown
7:50 AM 23.0 °F - 8.6 °F 54% 29.59 in 6.2 mi WSW 2.3 mph - N/A   Partly Cloudy
8:50 AM 23.0 °F 18.4 °F 10.4 °F 59% 29.59 in 6.2 mi SSE 3.5 mph - N/A   Partly Cloudy
9:00 AM 24 °F - 7 °F 34% 29.62 in 22 mi South 3.5 mph - -  
9:50 AM 24.8 °F - 10.4 °F 54% 29.59 in 6.2 mi South 2.3 mph - N/A   Partly Cloudy
10:50 AM 26.6 °F - 8.6 °F 47% 29.59 in 6.2 mi Variable 1.2 mph - N/A   Partly Cloudy
11:50 AM 24.8 °F 16.1 °F 8.6 °F 50% 29.59 in 6.2 mi SW 8.1 mph - N/A   Partly Cloudy
12:00 PM 25 °F - 7 °F 32% 29.62 in 22 mi SW 8.1 mph - -  
12:50 PM 24.8 °F 17.9 °F 10.4 °F 54% 29.59 in 6.2 mi South 5.8 mph - N/A   Partly Cloudy
1:50 PM 24.8 °F 16.9 °F 12.2 °F 59% 29.62 in 6.2 mi South 6.9 mph - N/A   Scattered Clouds
2:50 PM 24.8 °F 19.1 °F 10.4 °F 54% 29.62 in 6.2 mi SW 4.6 mph - N/A   Scattered Clouds
3:00 PM 25 °F - 8 °F 34% 29.64 in 22 mi SW 4.6 mph - -  
3:50 PM 24.8 °F 16.1 °F 12.2 °F 59% 29.62 in 6.2 mi SSW 8.1 mph - N/A   Partly Cloudy
4:50 PM 26.6 °F 17.5 °F 17.6 °F 69% 29.65 in 6.2 mi South 9.2 mph - N/A   Unknown
5:50 PM 26.6 °F 19.1 °F 19.4 °F 74% 29.65 in 6.2 mi South 6.9 mph - N/A   Unknown
6:00 PM 26 °F - 17 °F 59% 29.68 in 22 mi South 5.8 mph - -  
6:50 PM 23.0 °F 17.0 °F 10.4 °F 59% 29.65 in 6.2 mi South 4.6 mph - N/A   Unknown
7:50 PM 24.8 °F 17.9 °F 14.0 °F 64% 29.68 in 6.2 mi South 5.8 mph - N/A   Unknown
8:50 PM 24.8 °F 20.5 °F 15.8 °F 69% 29.68 in 6.2 mi ESE 3.5 mph - N/A   Partly Cloudy
9:00 PM 25 °F - 13 °F 47% 29.72 in 22 mi ESE 2.3 mph - -  
9:50 PM 24.8 °F - 17.6 °F 74% 29.71 in 6.2 mi Variable 1.2 mph - N/A   Mostly Cloudy
10:50 PM 24.8 °F - 17.6 °F 74% 29.71 in 6.2 mi East 1.2 mph - N/A   Unknown
11:50 PM 23.0 °F 18.4 °F 15.8 °F 74% 29.74 in 6.2 mi WSW 3.5 mph - N/A   Unknown